www.pogodaiklimat.ru

Погода и климат >> Архив погоды >> Австрия >> Ноймаркт


ПОГОДА в Ноймаркте

  • Прогноз погоды в Ноймаркте
  • Монитор погоды в Ноймаркте

АРХИВ ПОГОДЫ в Ноймаркте

Время (UTC), дата Ветер
(напр.,м/с)
 
Видим.   Явления Облачность Т
(С)
Тd
(С)
f
(%)
Тe
(С)
Тes
(С)
Комфортность P
(гПа)
Po
(гПа)
Тmin
(С)
Tmax
(С)
R
(мм)
R24
(мм)
S
(см)
01 9.06 штиль 0 н/о н/о +11.3 +9.2 87 +11 +11 1026.1 925.6
02 9.06 З 1 н/о н/о +10.5 +8.8 89 +10 +10 1026.7 925.8
03 9.06 штиль 0 н/о н/о +10.3 +8.4 88 +10 +10 1026.8 925.8
04 9.06 СЗ 1 н/о н/о +10.5 +8.7 89 +10 +10 1026.8 925.9
05 9.06 штиль 0 н/о н/о +11.9 +10.1 89 +11 +11 1026.3 926.0
06 9.06 штиль 0 н/о н/о +13.4 +10.4 82 +13 +13 1025.6 925.8 +10.1 +21.7
07 9.06 СВ 1 н/о н/о +18.0 +9.9 59 +19 +19 1023.7 925.6
08 9.06 Ю 3 н/о н/о +19.5 +10.2 55 +21 +21 комфорт 1022.6 925.1
09 9.06 Ю 2 н/о н/о +20.8 +11.0 53 +23 +23 комфорт 1021.8 924.8
10 9.06 Ю 4 н/о н/о +21.4 +10.0 48 +23 +23 комфорт 1021.2 924.4
11 9.06 Ю 3 н/о н/о +21.6 +9.3 45 +23 +23 комфорт 1020.7 924.0
12 9.06 Ю 3 н/о н/о +23.0 +10.1 44 +25 +25 комфорт 1019.4 923.3
13 9.06 Ю 4 н/о н/о +23.9 +11.6 46 +25 +25 комфорт 1018.2 922.5
14 9.06 Ю 4 н/о н/о +24.7 +11.8 44 +26 +26 жарко 1017.7 922.3
15 9.06 Ю 4 н/о н/о +25.1 +11.9 44 +27 +27 жарко 1017.1 921.9
16 9.06 Ю 4 н/о н/о +24.6 +10.9 42 +26 +26 жарко 1016.8 921.4
17 9.06 Ю 5 н/о н/о +24.1 +10.6 43 +25 +25 комфорт 1016.6 921.1
18 9.06 Ю 2 н/о н/о +22.5 +11.0 48 +25 +25 комфорт 1017.3 921.2 +13.3 +25.4
19 9.06 ЮВ 1 н/о н/о +21.0 +11.0 53 +24 +24 комфорт 1017.8 921.2
20 9.06 Ю 1 н/о н/о +18.3 +11.3 64 +20 +20 1019.1 921.6
21 9.06 С 1 н/о н/о +16.6 +11.6 72 +17 +17 1019.7 921.6
22 9.06 ЮВ 1 н/о н/о +15.0 +11.3 79 +16 +16 1020.6 921.9
23 9.06 З 2 н/о н/о +13.8 +10.9 83 +13 +13 1020.7 921.6
00 10.06 З 1 н/о н/о +13.0 +10.5 85 +13 +13 1021.0 921.6
01 10.06 З 1 н/о н/о +12.5 +10.2 86 +12 +12 1021.0 921.4
02 10.06 СЗ 1 н/о н/о +12.1 +10.0 87 +12 +12 1020.6 920.9
03 10.06 С 1 н/о н/о +11.6 +9.8 89 +11 +11 1020.6 920.7
04 10.06 С 1 н/о н/о +11.7 +9.7 88 +12 +12 1020.7 920.8
05 10.06 СЗ 1 н/о н/о +13.9 +11.0 83 +14 +14 1019.4 920.4
06 10.06 В 2 н/о н/о +17.0 +11.8 71 +17 +17 1017.7 919.9 +11.0 +22.9
07 10.06 З 1 н/о н/о +19.5 +12.8 65 +22 +22 комфорт 1016.0 919.2
08 10.06 Ю 4 н/о н/о +22.1 +13.9 60 +25 +25 комфорт 1015.1 919.2
09 10.06 Ю 4 н/о н/о +22.9 +13.5 55 +26 +26 жарко 1014.4 918.8
10 10.06 Ю 4 н/о н/о +24.6 +13.3 49 +27 +27 жарко 1013.5 918.5
11 10.06 Ю 4 н/о н/о +24.7 +13.3 49 +27 +27 жарко 1012.9 918.0
12 10.06 Ю 7 н/о н/о +25.5 +13.4 47 +28 +28 жарко 1012.1 917.5
13 10.06 Ю 3 н/о н/о +27.0 +14.0 45 +29 +29 жарко 1010.2 916.3
14 10.06 Ю 6 н/о н/о +26.3 +11.9 41 +28 +28 жарко 1009.9 915.7
15 10.06 Ю 6 н/о н/о +26.7 +11.0 37 +28 +28 жарко 1009.1 915.1
16 10.06 ЮЗ 6 н/о н/о +26.5 +9.9 35 +27 +27 жарко 1008.9 914.8
17 10.06 Ю 5 н/о н/о +25.3 +13.6 48 +27 +27 жарко 1008.9 914.6
18 10.06 Ю 4 н/о н/о +24.6 +13.6 50 +27 +27 жарко 1009.5 914.9 +16.7 +27.2
19 10.06 Ю 2 н/о н/о +23.3 +13.4 54 +27 +27 душно 1009.8 914.8
20 10.06 В 1 н/о н/о +22.4 +13.8 58 +26 +26 жарко 1011.0 915.6
21 10.06 ЮЗ 1 н/о н/о +20.5 +14.6 69 +24 +24 комфорт 1011.8 915.8
22 10.06 ЮВ 1 н/о н/о +19.4 +14.2 72 +22 +22 комфорт 1012.4 916.0
23 10.06 штиль 0 н/о н/о +17.6 +14.1 80 +18 +18 1012.6 915.6
00 11.06 С 1 н/о н/о +16.5 +13.6 83 +17 +17 1012.5 915.1
01 11.06 С 1 н/о н/о +15.2 +12.7 85 +16 +16 1012.7 914.9
02 11.06 штиль 0 н/о н/о +14.5 +12.4 87 +14 +14 1012.9 914.8
03 11.06 Ю 2 н/о н/о +14.3 +12.4 88 +14 +14 1013.3 915.1
04 11.06 З 3 н/о н/о +13.7 +12.2 91 +12 +12 1012.7 914.4
05 11.06 СЗ 2 н/о н/о +14.9 +12.7 87 +15 +15 1012.3 914.4
06 11.06 СЗ 1 н/о н/о +18.6 +14.1 75 +20 +20 1011.4 914.8 +13.1 +24.7
07 11.06 В 1 н/о н/о +21.4 +15.3 68 +25 +25 комфорт 1010.9 915.3
08 11.06 ЮВ 2 н/о н/о +22.5 +14.5 61 +26 +26 жарко 1010.5 915.2
09 11.06 Ю 3 н/о н/о +24.2 +14.7 55 +27 +27 жарко 1009.3 914.6
10 11.06 Ю 6 н/о н/о +25.3 +14.0 50 +28 +28 жарко 1008.5 914.2
11 11.06 Ю 8 н/о н/о +26.1 +12.6 43 +28 +28 жарко 1008.3 914.2
12 11.06 Ю 7
{13}
н/о н/о +26.4 +14.5 48 +29 +29 жарко 1007.9 914.0
13 11.06 Ю 7 н/о н/о +25.9 +13.2 45 +28 +28 жарко 1007.9 913.8
14 11.06 Ю 4 н/о н/о +25.5 +13.8 48 +28 +28 жарко 1008.0 913.8
15 11.06 ЮВ 5 н/о н/о +24.6 +11.5 44 +26 +26 жарко 1008.4 913.8
16 11.06 ЮЗ 8
{14}
н/о н/о +23.6 +6.0 32 +24 +24 комфорт 1010.8 915.6 0.0
17 11.06 В 2
{14}
н/о осадки н/о +15.8 +12.3 80 +16 +16 1014.8 916.9 2
18 11.06 СВ 2
{14}
н/о {осадки} н/о +16.1 +11.9 76 +16 +16 1014.6 916.8 +15.8 +27.6 2
19 11.06 Ю 4 н/о ливневой дождь н/о +14.3 +12.6 90 +13 +13 1015.8 917.4 1
20 11.06 ЮВ 1 н/о осадки н/о +14.1 +12.7 91 +14 +14 1015.9 917.4 2
21 11.06 З 3 н/о в посл. час осадки {ливн. осадки} н/о +14.0 +12.4 90 +13 +13 1015.6 917.1 4
22 11.06 В 1 н/о н/о +13.6 +12.4 92 +14 +14 1016.0 917.3
23 11.06 С 1 н/о н/о +13.1 +12.0 93 +13 +13 1015.7 916.9
00 12.06 З 1 н/о {ливн. осадки} н/о +12.2 +11.3 94 +12 +12 1015.5 916.4 4
01 12.06 В 1 н/о н/о +12.0 +11.3 95 +12 +12 1015.2 916.0
02 12.06 штиль 0 н/о н/о +11.4 +11.0 97 +11 +11 1014.9 915.6
03 12.06 СЗ 1 н/о н/о +11.0 +10.7 98 +11 +11 1015.2 915.7
04 12.06 Ю 1 н/о н/о +10.9 +10.6 98 +10 +10 1014.9 915.4
05 12.06 СЗ 1 н/о н/о +11.4 +11.0 97 +11 +11 1014.7 915.4
06 12.06 штиль 0 н/о н/о +13.2 +11.9 92 +13 +13 1014.0 915.4 +10.7 +16.5 4
07 12.06 З 1 н/о н/о +16.8 +13.4 80 +18 +18 1012.4 915.1 0.0
08 12.06 В 1 н/о н/о +20.9 +14.0 65 +25 +25 комфорт 1010.6 914.8 0.0
09 12.06 Ю 5 н/о н/о +22.9 +14.1 58 +26 +26 жарко 1009.5 914.4 0.0
10 12.06 Ю 6 н/о н/о +24.0 +14.1 54 +26 +26 жарко 1009.0 914.3
11 12.06 Ю 4 н/о н/о +24.8 +13.0 48 +27 +27 жарко 1008.7 914.2
12 12.06 Ю 7 н/о н/о +25.3 +13.5 48 +27 +27 жарко 1008.5 914.2 0.0
13 12.06 Ю 5 н/о н/о +26.2 +13.1 44 +28 +28 жарко 1008.0 914.0
14 12.06 Ю 8
{13}
н/о н/о +26.0 +11.9 41 +27 +27 жарко 1007.9 913.8
15 12.06 Ю 7
{13}
н/о н/о +26.4 +13.2 44 +28 +28 жарко 1007.7 913.8
16 12.06 Ю 6
{14}
н/о н/о +25.5 +12.0 43 +27 +27 жарко 1007.8 913.6
17 12.06 Ю 6 н/о н/о +24.8 +11.8 44 +26 +26 жарко 1008.2 913.7
18 12.06 Ю 6
{14}
н/о н/о +23.9 +10.1 42 +25 +25 комфорт 1008.6 913.8 +13.2 +26.7 0.0
19 12.06 Ю 2 н/о н/о +22.5 +10.1 45 +24 +24 комфорт 1009.3 914.0
20 12.06 В 2 н/о н/о +21.3 +10.8 51 +23 +23 комфорт 1010.6 914.8
21 12.06 Ю 2 н/о н/о +20.4 +11.5 57 +23 +23 комфорт 1011.2 915.1
22 12.06 Ю 1 н/о н/о +18.8 +11.7 63 +21 +21 комфорт 1011.7 915.1
23 12.06 СЗ 2 н/о н/о +17.0 +12.1 73 +17 +17 1012.4 915.1
00 13.06 штиль 0 н/о н/о +15.4 +12.0 80 +15 +15 1012.7 914.9
01 13.06 штиль 0 н/о н/о +14.7 +11.6 82 +14 +14 1012.9 914.8
02 13.06 СЗ 1 н/о н/о +14.0 +11.3 84 +14 +14 1013.2 914.9
03 13.06 З 1 н/о н/о +13.4 +11.1 86 +14 +14 1013.8 915.2
04 13.06 СЗ 1 н/о н/о +13.4 +11.1 86 +14 +14 1014.1 915.5
05 13.06 В 1 н/о н/о +15.8 +12.2 79 +16 +16 1013.5 915.8
06 13.06 штиль 0 н/о н/о +18.3 +13.0 71 +19 +19 1012.9 916.0 +13.3 +24.2
07 13.06 ЮВ 1 н/о н/о +22.0 +13.7 59 +25 +25 комфорт 1011.6 916.0
08 13.06 Ю 3 н/о н/о +22.5 +12.6 54 +25 +25 комфорт 1011.5 916.0
09 13.06 Ю 4 н/о н/о +23.3 +13.1 53 +26 +26 жарко 1011.4 916.2
10 13.06 Ю 4 н/о н/о +24.2 +12.3 47 +26 +26 жарко 1010.9 916.0
11 13.06 Ю 5 н/о н/о +25.0 +11.4 43 +26 +26 жарко 1010.7 916.0
12 13.06 Ю 6 н/о н/о +25.5 +10.4 39 +26 +26 жарко 1010.4 915.9
13 13.06 Ю 5 н/о н/о +26.2 +10.1 36 +27 +27 жарко 1009.9 915.6
14 13.06 Ю 6 н/о н/о +26.4 +10.3 36 +27 +27 жарко 1009.7 915.5
15 13.06 Ю 7 н/о н/о +26.3 +9.4 34 +27 +27 жарко 1009.7 915.5
16 13.06 Ю 6 н/о н/о +26.0 +9.5 35 +26 +26 жарко 1009.8 915.5
17 13.06 Ю 6 н/о н/о +25.2 +9.4 37 +26 +26 жарко 1010.2 915.6
18 13.06 Ю 3 н/о н/о +23.7 +9.9 42 +25 +25 комфорт 1011.1 916.0 +18.2 +26.7
19 13.06 Ю 3 н/о н/о +22.1 +9.7 45 +24 +24 комфорт 1012.5 916.7
20 13.06 Ю 3 н/о н/о +20.8 +10.6 52 +23 +23 комфорт 1013.8 917.5
21 13.06 Ю 2 н/о н/о +18.8 +10.9 60 +20 +20 1014.9 917.9
22 13.06 Ю 2 н/о н/о +17.1 +10.9 67 +17 +17 1016.2 918.6
23 13.06 З 1 н/о н/о +14.9 +10.0 72 +15 +15 1017.5 919.0
00 14.06 С 1 н/о н/о +13.5 +9.9 79 +14 +14 1018.5 919.5
01 14.06 ЮВ 1 н/о н/о +12.2 +9.3 82 +12 +12 1019.3 919.7
02 14.06 СЗ 1 н/о н/о +11.2 +8.8 85 +11 +11 1019.9 919.9
03 14.06 З 1 н/о н/о +10.5 +8.1 85 +10 +10 1020.4 920.1
04 14.06 СВ 1 н/о н/о +10.3 +8.0 86 +10 +10 1021.1 920.7
05 14.06 штиль 0 н/о н/о +11.4 +8.5 82 +11 +11 1021.1 921.1
06 14.06 СВ 1 н/о н/о +16.0 +9.9 67 +17 +17 1020.0 921.6 +10.1 +24.1
07 14.06 З 1 н/о н/о +18.0 +9.1 56 +19 +19 1019.9 922.1 0.0
08 14.06 С 1 н/о н/о +21.2 +10.8 51 +23 +23 комфорт 1018.5 921.9
09 14.06 В 1 н/о н/о +23.8 +10.3 42 +25 +25 комфорт 1017.5 921.8 0.0
10 14.06 ЮВ 2 н/о н/о +25.2 +11.9 43 +27 +27 жарко 1017.0 921.8
11 14.06 Ю 3 н/о н/о +26.3 +11.8 40 +28 +28 жарко 1016.2 921.4
12 14.06 Ю 4 н/о н/о +27.8 +8.7 30 +28 +28 жарко 1015.3 921.0 0.0
13 14.06 Ю 6 н/о н/о +28.7 +9.2 30 +29 +29 жарко 1014.5 920.5
14 14.06 Ю 6 н/о н/о +28.8 +9.0 29 +29 +29 жарко 1014.1 920.2
15 14.06 Ю 7 н/о н/о +28.9 +8.6 28 +28 +28 жарко 1013.4 919.6
16 14.06 Ю 5 н/о н/о +28.9 +7.7 26 +28 +28 жарко 1013.1 919.3
17 14.06 Ю 6 н/о н/о +28.4 +6.7 25 +27 +27 жарко 1013.0 919.0
18 14.06 Ю 3 н/о н/о +26.6 +7.6 30 +26 +26 жарко 1013.6 919.0 +15.3 +29.4 0.0
19 14.06 ЮВ 2 н/о н/о +24.2 +9.2 39 +25 +25 комфорт 1014.5 919.2
20 14.06 штиль 0 н/о н/о +19.7 +10.8 56 +21 +21 комфорт 1016.4 919.6
21 14.06 штиль 0 н/о н/о +17.8 +10.7 63 +18 +18 1017.2 919.7
22 14.06 штиль 0 н/о н/о +16.6 +10.6 68 +17 +17 1017.9 919.9
23 14.06 СЗ 1 н/о н/о +15.5 +10.3 71 +16 +16 1018.3 919.9
00 15.06 штиль 0 н/о н/о +14.7 +10.3 75 +14 +14 1018.1 919.5
01 15.06 СВ 1 н/о н/о +14.0 +10.2 78 +14 +14 1018.1 919.3
02 15.06 ЮЗ 1 н/о н/о +13.3 +10.1 81 +13 +13 1018.3 919.2
03 15.06 СВ 1 н/о н/о +13.3 +10.1 81 +13 +13 1017.8 918.8
04 15.06 штиль 0 н/о н/о +12.7 +10.1 84 +12 +12 1017.7 918.5
05 15.06 З 1 н/о н/о +14.0 +10.7 80 +14 +14 1017.5 918.7
06 15.06 ЮЗ 1 н/о н/о +15.7 +11.8 78 +16 +16 1017.1 919.0 +12.7 +27.1
07 15.06 СВ 1 н/о н/о +19.0 +12.4 66 +21 +21 комфорт 1015.1 918.2
08 15.06 штиль 0 н/о н/о +22.3 +13.9 59 +25 +25 комфорт 1014.1 918.4
09 15.06 Ю 3 н/о н/о +23.1 +12.8 52 +26 +26 жарко 1014.1 918.6
10 15.06 Ю 4 н/о н/о +22.6 +12.8 54 +25 +25 комфорт 1014.2 918.5 0.0
11 15.06 Ю 3 н/о н/о +23.4 +13.9 55 +27 +27 душно 1013.4 918.1
12 15.06 Ю 3 н/о н/о +25.0 +12.0 44 +27 +27 жарко 1012.5 917.7 0.0
13 15.06 Ю 2 н/о н/о +25.8 +12.2 43 +27 +27 жарко 1011.6 917.1
14 15.06 Ю 4 н/о н/о +27.1 +10.0 34 +28 +28 жарко 1010.6 916.5
15 15.06 ЮВ 3 н/о н/о +27.1 +10.9 36 +28 +28 жарко 1010.0 916.0
16 15.06 Ю 6 н/о н/о +27.3 +10.8 36 +28 +28 жарко 1008.9 915.1
17 15.06 Ю 4 н/о н/о +26.7 +11.8 39 +28 +28 жарко 1009.3 915.3
18 15.06 Ю 2 н/о н/о +25.2 +10.9 41 +26 +26 жарко 1009.8 915.3 +15.4 +28.1 0.0
19 15.06 В 1 н/о н/о +23.8 +10.9 44 +25 +25 комфорт 1010.4 915.4
20 15.06 З 1 н/о н/о +20.3 +11.4 57 +23 +23 комфорт 1012.2 916.0
21 15.06 штиль 0 н/о н/о +18.3 +11.8 66 +19 +19 1013.2 916.3
22 15.06 штиль 0 н/о н/о +17.3 +11.4 68 +17 +17 1013.6 916.3
23 15.06 СЗ 1 н/о н/о +15.6 +11.2 75 +16 +16 1014.4 916.5

 

Местоположение метеостанции Ноймаркт (Австрия): широта 47.07 долгота 14.42 высота над уровнем моря 870 м.

В архиве по умолчанию представлена погода в Ноймаркте за последнюю неделю. Архивные данные за месяц целиком и за предыдущие месяцы, начиная с января 2011 года, Вы можете получить, выбрав интересующий диапазон дат из раскрывающегося списка и нажав кнопку "Ввод!".


*Определитесь, кто Вы:
робот инопланетянин человек

Внимание! Время в таблицах - всемирное. Для получения местного времени необходимо прибавить поправку, которая равна 1 ч.

Смотрите также архив погоды в соседних городах и на ближайших метеорологических станциях:

Погода в Мурау (Австрия) (19 км)
Погода в Цельтвеге (Австрия) (29 км)
Погода в Цельтвеге (Австрия) (29 км)
Погода в Вайтенсфельд-им-Гурктале (Австрия) (30 км)
Погода в Прайтенеге (Австрия) (41 км)
Погода в Санкт-Андре (Австрия) (46 км)
Погода в Фельдкирхене (Австрия) (46 км)
Погода в Кальванге (Австрия) (47 км)
Погода в Клагенфурте (Австрия) (47 км)
Погода в Клагенфурте (Австрия) (50 км)

Пояснения к столбцам:

Ветер - указаны скорость ветра в м/с - средняя за 10 мин, порывы в срок и между сроками (в фигурных скобках) и направление, откуда дует ветер: С - северный, СВ - северо-восточный, В - восточный, ЮВ - юго-восточный, Ю - южный, ЮЗ - юго-западный, З - западный, СЗ - северо-западный.
Видимость - горизонтальная дальность видимости в метрах или километрах. При видимости от 1 до 10 км при отсутствии осадков обычно наблюдается дымка, при ухудшении видимости до 1 км и менее - туман. В сухую погоду видимость может ухудшаться дымом, пылью или мглою.
Явления - указаны атмосферные явления, наблюдавшиеся в срок или в последний час перед сроком; фигурными скобками обозначены явления, наблюдавшиеся между сроками (за 1-3 часа до срока); квадратными скобками обозначены град или гололедные отложения с указанием их диаметра в мм.
Облачность - указаны через наклонную черту общая и нижняя облачность в баллах и высота нижней границы облаков в метрах; квадратными скобками обозначены формы облаков: Ci - перистые, Cs - перисто-слоистые, Cc - перисто-кучевые, Ac - высококучевые, As - высокослоистые, Sc - слоисто-кучевые, Ns - слоисто-дождевые, Cu - кучевые, Cb - кучево-дождевые. Подробнее классификацию облаков см. в Атласе облаков (PDF).
T - Температура воздуха - температура, измеренная на высоте 2 м над землей.
Td - Температура точки росы - температура, при понижении до которой содержащийся в воздухе водяной пар достигнет насыщения.
f - Относительная влажность воздуха - влажноcть воздуха, измеренная на высоте 2 м над землей.
Te - Эффективная температура - температура, которую ощущает одетый по сезону человек в тени. Характеристика душности погоды. При расчете учитывается влияние влажности воздуха и скорости ветра на теплоощущения человека.
Tes - Эффективная температура на солнце - температура, которую ощущает человек, с поправкой на солнечный нагрев. Характеристика знойности погоды. Зависит от высоты солнца над горизонтом, облачности и скорости ветра. Ночью, в пасмурную погоду, а также при ветре 12 м/с и более поправка равна нулю.
P - Атмосферное давление - приведенное к уровню моря атмосферное давление.
Po - Атмосферное давление - измеренное на уровне метеостанции атмосферное давление.
Tmin - Минимальная температура - минимум температуры воздуха на высоте 2 м над землей.
Tmax - Максимальная температура - максимум температуры воздуха на высоте 2 м над землей.
R - Количество осадков - Количество выпавших осадков за период времени, мм. При наведении курсора мыши на число - период времени, за который выпало указанное количество осадков.
R24 - Количество осадков - Количество выпавших осадков за 24 часа, мм.
S - Снежный покров - Высота снежного покрова, см. При наведении курсора мыши на число - состояние снежного покрова и степень покрытия местности в баллах.